GW2193 Weather Reports


time (UTC)temp
C
wind
direction
speed
KPH
gust
KPH
rain 1hr
cm
rain 24hr
cm
rain mn
cm
humidity
%
barometer
mb
20260504023054 18 360 1.6 4.8 0.00 0.00 0.00 73 1019.2
20260504021557 18 360 1.6 4.8 0.00 0.00 0.00 72 1018.9
20260504020106 19 360 1.6 4.8 0.00 0.00 0.00 70 1018.9
20260504014604 20 360 3.2 6.4 0.00 0.00 0.00 68 1018.7
20260504013140 20 360 1.6 8.0 0.00 0.00 0.00 66 1018.4
20260504011553 20 360 3.2 12.9 0.00 0.00 0.00 65 1018.3
20260504010056 20 360 3.2 9.7 0.00 0.00 0.00 64 1018.1
20260504004552 21 360 4.8 17.7 0.00 0.00 0.00 62 1017.8
20260504003054 21 360 6.4 16.1 0.00 0.00 0.00 61 1017.8
20260504001608 22 360 6.4 17.7 0.00 0.00 0.00 59 1017.7
20260504000059 22 253 4.8 20.9 0.00 0.00 0.00 56 1017.7
20260503234603 24 326 3.2 14.5 0.00 0.00 0.00 44 1017.6
20260503233103 24 16 4.8 16.1 0.00 0.00 0.00 42 1017.7
20260503231559 25 351 3.2 14.5 0.00 0.00 0.00 41 1017.7
20260503230051 25 336 3.2 14.5 0.00 0.00 0.00 41 1017.7
20260503224555 25 360 4.8 14.5 0.00 0.00 0.00 40 1017.7
20260503223054 25 14 4.8 20.9 0.00 0.00 0.00 40 1017.6
20260503221554 25 360 3.2 16.1 0.00 0.00 0.00 39 1017.5
20260503220054 25 360 4.8 14.5 0.00 0.00 0.00 40 1017.6
20260503214602 25 360 4.8 20.9 0.00 0.00 0.00 40 1017.7
20260503213053 25 29 4.8 17.7 0.00 0.00 0.00 41 1017.9
20260503211621 26 32 3.2 14.5 0.00 0.00 0.00 39 1018.1
20260503210054 25 109 4.8 17.7 0.00 0.00 0.00 45 1018.4
20260503204558 25 67 12.9 25.7 0.00 0.00 0.00 48 1018.6
20260503203059 25 203 4.8 14.5 0.00 0.00 0.00 42 1018.8
20260503201611 24 148 11.3 24.1 0.00 0.00 0.00 46 1019.1
20260503200053 24 180 9.7 24.1 0.00 0.00 0.00 50 1019.2
20260503194554 24 165 9.7 19.3 0.00 0.00 0.00 45 1019.5
20260503193108 25 338 4.8 17.7 0.00 0.00 0.00 38 1019.9
20260503191558 25 119 6.4 14.5 0.00 0.00 0.00 37 1020.1
20260503190107 25 233 1.6 12.9 0.00 0.00 0.00 39 1020.3
20260503184556 25 337 4.8 17.7 0.00 0.00 0.00 40 1020.5
20260503183101 25 360 6.4 19.3 0.00 0.00 0.00 41 1020.7
20260503181552 24 360 6.4 17.7 0.00 0.00 0.00 38 1020.8
20260503180058 25 360 3.2 17.7 0.00 0.00 0.00 39 1020.9
20260503173112 23 337 6.4 14.5 0.00 0.00 0.00 41 1021.1
20260503171610 23 336 4.8 20.9 0.00 0.00 0.00 40 1021.1
20260503150106 22 18 4.8 12.9 0.00 0.00 0.00 55 1022.3
20260503140113 19 348 3.2 9.7 0.00 0.00 0.00 63 1021.9
20260503100104 9 0 0.0 1.6 0.00 0.20 0.00 100 1020.1
20260503081601 10 0 0.0 1.6 0.00 0.94 0.00 99 1019.7
20260503071606 11 0 0.0 0.0 0.00 1.47 0.00 95 1019.1
20260503060113 11 0 0.0 1.6 0.00 1.88 0.00 93 1019.3
20260503054626 12 0 0.0 3.2 0.00 2.21 0.00 91 1019.2
20260503053107 12 0 0.0 3.2 0.00 2.21 0.00 91 1019.1
20260503051558 12 0 0.0 0.0 0.00 2.21 0.00 90 1019.1
20260503050058 12 0 0.0 0.0 0.00 2.21 0.00 90 1019.1
20260503044607 13 0 0.0 1.6 0.00 2.21 2.21 90 1018.8
20260503043101 13 0 0.0 3.2 0.00 2.21 2.21 90 1018.8
20260503041614 13 0 0.0 3.2 0.00 2.21 2.21 89 1018.6
20260503040055 13 0 0.0 4.8 0.00 2.21 2.21 89 1018.5
20260503034555 13 0 0.0 3.2 0.00 2.39 2.21 87 1018.5
20260503033052 13 0 0.0 3.2 0.00 2.39 2.21 86 1018.4
20260503031631 14 0 0.0 1.6 0.00 2.39 2.21 87 1018.3
20260503030055 14 0 0.0 1.6 0.00 2.39 2.21 85 1018.0
20260503024602 15 360 0.0 1.6 0.00 2.51 2.21 84 1017.9